Aalto-2 (42729 NORAD) Tracking and Keplerian Element Data

This shows tracking and keplerian element data for the satellite.

Feedback or suggestion? Click here.




ElementValue
Catalog42729
NameAalto-2
Epoch Orbit6434
Epoch Day193.46965702
Epoch Year2018
RAAN226.3204
Inclination51.6326
Eccentricity0.0003613
Argument of Perigee352.5423
Mean Anonmoly7.5522
Mean Motion15.72722235
Decay Rate0.00023666
L11 42729U 98067MJ 18193.46965702 .00023666 00000-0 17577-3 0 9998
L22 42729 051.6326 226.3204 0003613 352.5423 007.5522 15.72722235064349

Live tracking and technical data element details for Aalto-2 (NORAD 42729). Aalto-2 can be tracked NOW for your location showing map with azimuth and elevation plus other details from your city location.

Track the satellite on the map from your city or location and see movement details for azimuth, elevation, latitude, longitude, range, height, and movement on the map or in text.







IsCatalogInMostPopularTable: catalog: 42729, numindb: 113
Update: records affected: 1



GetName: 42729 Aalto-2

Hit Count: updated at: Thu, 19 Jul 2018 03:44:29 GMT